Regional Weather Roundup
Issued by NWS Mt. Holly, NJ

Home | Current Version | Previous Version | Text Only | Print | Product List | Glossary On
Versions: 1 2 3 4 5 6 7 8 9 10 11 12 13 14 15 16 17 18 19 20 21 22 23 24 25 26 27 28 29 30 31 32 33 34 35 36 37 38 39 40 41 42 43 44 45 46 47 48 49 50
642
ASUS41 KPHI 141212
RWRPHI

REGIONAL WEATHER ROUNDUP
NATIONAL WEATHER SERVICE MOUNT HOLLY NJ
700 AM EST SUN FEB 14 2016

NOTE:  "FAIR" INDICATES FEW OR NO CLOUDS BELOW 12,000 FEET WITH NO
SIGNIFICANT WEATHER AND/OR OBSTRUCTIONS TO VISIBILITY.

 * = STATION DOES NOT REPORT PRECIPITATION (E.G. RAIN, SNOW, ETC.)
        OR FOG.

NJZ015>026-141300-
SOUTHERN NEW JERSEY

CITY           SKY/WX    TMP DP  RH WIND       PRES   REMARKS
POMONA         CLEAR      9  -9  44 NW13      30.50R WCI  -7
6HR MIN TEMP:   7; 6HR MAX TEMP:  13;

WILDWOOD*      CLEAR     12  -6  44 NW15G24   30.51R WCI  -4
MILLVILLE      CLEAR     10  -7  46 NW10      30.51R WCI  -4
WRIGHTSTOWN    CLEAR      7 -13  40 NW9       30.47R WCI  -7
MOUNT HOLLY    PTCLDY     6 -10  47 N7        30.51R WCI  -6
TRENTON        CLEAR      4 -12  48 N10G20    30.48R WCI -11
6HR MIN TEMP:   4; 6HR MAX TEMP:   8;


$$
NJZ001>014-141300-
NORTHERN NEW JERSEY

CITY           SKY/WX    TMP DP  RH WIND       PRES   REMARKS
SUSSEX         CLEAR     -6 -18  56 VRB7G22   30.43R WCI -20
ANDOVER*         N/A     -5 -17  56 N9G21     30.44R WCI -22
MORRISTOWN     CLEAR      0 -15  50 N12G21    30.49R WCI -18
NEWARK         PTCLDY     1 -18  40 NW13G28   30.51R WCI -17
TETERBORO      PTCLDY    -1 -19  42 NW22G37   30.49R WCI -24
CALDWELL       PTCLDY    -2 -19  44 NW10      30.50R WCI -19
SOMERVILLE     CLEAR      1 -14  49 VRB7      30.49R WCI -12
ALLAIRE*       CLEAR      3 -17  39 NW15      30.47R WCI -15
TOMS RIVER*    PTCLDY     5 -11  47 NW9       30.49R WCI  -9

$$
PAZ043-044-047-054-055-060>062-066>071-141300-
EASTERN PENNSYLVANIA

CITY           SKY/WX    TMP DP  RH WIND       PRES   REMARKS
PHILADELPHIA   PTCLDY     9 -12  38 NW13      30.53R WCI  -7
6HR MIN TEMP:   8; 6HR MAX TEMP:  13;

NORTH PHILA    PTCLDY     7 -11  43 NW20G26   30.53R WCI -13
BLUE BELL*       N/A      5  -9  51 W5        30.49R WCI  -4
DOYLESTOWN     CLEAR      1 -13  51 NW8       30.47R WCI -13
QUAKERTOWN*    CLEAR      1 -11  55 N3        30.47R
PERKASIE*      FAIR       1 -13  51 NW7G16    30.46R WCI -11
POTTSTOWN      PTCLDY     4 -11  50 NW8       30.50R WCI  -9
LANCASTER      PTCLDY     2  -8  63 N6        30.49R WCI  -9
COATESVILLE    PTCLDY     5  -8  56 NW5       30.46R WCI  -4
READING        PTCLDY     4 -10  52 N8        30.50R WCI  -9
6HR MIN TEMP:   4; 6HR MAX TEMP:   9;

ALLENTOWN      CLEAR      2 -11  54 NW9       30.48R WCI -13
6HR MIN TEMP:   2; 6HR MAX TEMP:   8;

MOUNT POCONO   CLEAR    -11 -19  68 NW15      30.24R WCI -33
6HR MIN TEMP: -11; 6HR MAX TEMP:  -4; 6HR PCP: TRACE;

HAZLETON       CLEAR     -4 -15  59 W13       30.34R WCI -23
LEHIGHTON      FAIR       1 -13  51 CALM      30.47R
WILKES BARRE   CLEAR    N/A N/A N/A N10G17    30.43R

$$
DEZALL-MDZ008-012-015-019-020-141300-
DELAWARE AND EASTERN MARYLAND

CITY           SKY/WX    TMP DP  RH WIND       PRES   REMARKS
WILMINGTON     CLEAR      8  -5  55 NW10      30.53R WCI  -6
6HR MIN TEMP:   8; 6HR MAX TEMP:  10;

DOVER          CLEAR     12  -3  52 NW9       30.51R WCI  -1
GEORGETOWN     CLEAR     12  -6  44 NW7       30.53R WCI   1
6HR MIN TEMP:  12; 6HR MAX TEMP:  14;

PATUXENT       PTCLDY    13  -2  51 W13       30.56R WCI  -2
OCEAN CITY     CLEAR     12  -4  48 NW12      30.53R WCI  -2
WALLOPS ISLAND FAIR      13  -1  54 NW9       30.54R WCI   1
SALISBURY      PTCLDY    11  -1  58 NW7       30.53R WCI   0

$$
PAZ001-021-NYZ056-072-MDZ011-DCZ001-141300-
OTHER NEARBY LOCATIONS

CITY           SKY/WX    TMP DP  RH WIND       PRES   REMARKS
HARRISBURG     CLEAR      9  -4  55 NW9       30.50R WCI  -4
STATE COLLEGE  PTCLDY     1  -4  78 NW6       30.41R WCI -10
WILLIAMSPORT   PTCLDY     0 -12  57 NW12      30.50R WCI -17
BINGHAMTON     CLOUDY   -18 -24  74 CALM      30.34R
NEW YORK CITY  CLEAR      0 -18  42 MISG      30.49R
BALTIMORE      PTCLDY     9  -1  64 W6        30.53R WCI  -1
WASHINGTON DC  FAIR      13  -2  51 NW9       30.57R WCI   1

$$




USA.gov is the U.S. government's official web portal to all federal, state and local government web resources and services.